2022/09/22 23:33:26+0000,-35.81,-44.89,-37.23,-39.69,-49.52,-11.64
2022/09/22 23:34:18+0000,-36.28,-45.17,-36.84,-39.16,-49.28,-52.62
2022/09/22 23:35:10+0000,-36.03,-46.17,-36.60,-38.95,-49.26,-53.26
2022/09/22 23:36:02+0000,-36.60,-46.11,-36.68,-38.60,-49.66,-48.98
2022/09/22 23:36:54+0000,-36.51,-45.08,-35.97,-38.03,-49.65,-52.94
2022/09/22 23:37:46+0000,-36.28,-46.05,-36.75,-38.41,-49.82,-52.51
2022/09/22 23:38:38+0000,-35.17,-44.35,-37.11,-38.42,-49.05,-52.20
2022/09/22 23:39:30+0000,-36.48,-45.06,-36.55,-38.82,-49.67,-52.91
2022/09/22 23:40:23+0000,-36.20,-45.21,-36.69,-36.94,-48.66,-52.02
2022/09/22 23:41:22+0000,-35.35,-45.01,-36.54,-37.98,-45.00,-50.46
2022/09/22 23:42:14+0000,-36.06,-44.94,-36.75,-37.82,-48.76,-51.91
2022/09/22 23:43:06+0000,-36.19,-45.15,-36.87,-37.54,-47.96,-51.28
2022/09/22 23:43:58+0000,-36.75,-45.19,-36.66,-37.73,-48.00,-51.41
2022/09/22 23:44:50+0000,-35.74,-44.87,-36.95,-37.91,-48.74,-50.93
2022/09/22 23:45:42+0000,-36.64,-44.79,-36.32,-38.17,-49.23,-51.55
2022/09/22 23:46:34+0000,-35.20,-44.29,-36.62,-38.20,-48.89,-51.20
2022/09/22 23:47:26+0000,-36.15,-45.27,-36.77,-37.12,-47.04,-50.37
2022/09/22 23:48:18+0000,-36.44,-43.91,-36.97,-37.74,-48.29,-51.48
2022/09/22 23:49:10+0000,-36.30,-45.03,-37.31,-38.26,-49.45,-50.90
2022/09/22 23:50:02+0000,-35.18,-44.60,-36.90,-38.46,-49.12,-51.32
2022/09/22 23:51:02+0000,-35.90,-45.79,-36.88,-37.72,-48.50,-50.98
2022/09/22 23:51:54+0000,-36.51,-45.24,-36.84,-38.09,-49.32,-11.67
2022/09/22 23:52:46+0000,-36.14,-45.42,-36.70,-37.64,-48.64,-51.44
2022/09/22 23:53:38+0000,-35.71,-46.36,-37.28,-37.73,-48.62,-51.53
2022/09/22 23:54:30+0000,-34.89,-45.75,-37.01,-38.35,-49.09,-11.84
2022/09/22 23:55:22+0000,-36.27,-45.52,-37.05,-38.62,-49.04,-11.77
2022/09/22 23:56:14+0000,-35.77,-46.12,-37.31,-37.03,-48.71,-51.78
2022/09/22 23:57:06+0000,-35.69,-45.17,-36.65,-38.81,-50.04,-52.68
2022/09/22 23:57:58+0000,-35.61,-45.98,-36.46,-38.51,-50.37,-13.31
2022/09/22 23:58:50+0000,-34.85,-46.23,-37.01,-38.19,-49.85,-11.66
2022/09/22 23:59:43+0000,-35.73,-45.63,-37.04,-38.98,-49.68,-52.61
2022/09/23 00:00:35+0000,-36.16,-45.96,-36.39,-39.01,-49.30,-53.20
2022/09/23 00:01:42+0000,-35.62,-45.61,-36.53,-37.74,-50.20,-53.04
2022/09/23 00:02:34+0000,-35.76,-45.56,-36.94,-38.38,-49.28,-53.10
2022/09/23 00:03:26+0000,-36.40,-45.42,-36.27,-38.47,-49.84,-12.15
2022/09/23 00:04:18+0000,-36.35,-45.52,-36.13,-38.31,-50.24,-11.89
2022/09/23 00:05:10+0000,-36.45,-45.96,-36.32,-39.12,-50.61,-52.32
2022/09/23 00:06:02+0000,-36.36,-45.07,-36.17,-38.55,-50.05,-52.41
2022/09/23 00:06:54+0000,-35.46,-45.65,-36.30,-38.83,-50.47,-12.34
2022/09/23 00:07:47+0000,-36.15,-46.61,-35.95,-37.84,-50.11,-52.60
2022/09/23 00:08:39+0000,-36.22,-46.76,-36.30,-37.64,-48.95,-52.57
2022/09/23 00:09:31+0000,-36.61,-46.86,-36.29,-38.75,-49.43,-53.13
2022/09/23 00:10:23+0000,-36.97,-47.29,-37.07,-38.62,-50.49,-53.20
2022/09/23 00:11:23+0000,-37.47,-46.13,-36.96,-38.19,-50.22,-52.22
2022/09/23 00:12:15+0000,-36.17,-46.68,-36.98,-38.10,-49.78,-11.70
2022/09/23 00:13:07+0000,-36.64,-47.07,-36.59,-38.39,-50.11,-11.85
2022/09/23 00:13:59+0000,-36.45,-46.26,-36.41,-37.59,-50.12,-51.38
2022/09/23 00:14:51+0000,-35.57,-46.82,-36.51,-37.94,-49.72,-51.78
2022/09/23 00:15:43+0000,-35.59,-45.74,-36.90,-38.20,-50.07,-52.00
2022/09/23 00:16:35+0000,-36.26,-46.58,-36.32,-36.67,-50.42,-52.54
2022/09/23 00:17:27+0000,-36.00,-46.36,-37.58,-37.59,-49.96,-52.22
2022/09/23 00:18:19+0000,-35.59,-46.54,-36.69,-37.98,-49.93,-51.71
2022/09/23 00:19:11+0000,-36.24,-46.66,-36.41,-37.69,-49.86,-52.25
2022/09/23 00:20:04+0000,-35.75,-47.21,-36.34,-37.91,-49.35,-52.20
2022/09/23 00:21:03+0000,-35.90,-47.17,-37.20,-37.61,-47.93,-52.75
2022/09/23 00:21:55+0000,-35.46,-47.52,-37.18,-36.37,-48.39,-50.29
2022/09/23 00:22:47+0000,-36.28,-47.48,-36.72,-37.45,-48.76,-49.54
2022/09/23 00:23:39+0000,-34.39,-47.57,-36.61,-36.76,-46.18,-49.41
2022/09/23 00:24:31+0000,-35.68,-46.59,-36.65,-36.93,-47.54,-49.94
2022/09/23 00:25:23+0000,-35.54,-47.89,-36.59,-36.86,-46.63,-49.71
2022/09/23 00:26:15+0000,-34.82,-46.79,-36.50,-37.19,-47.16,-49.35
2022/09/23 00:27:07+0000,-35.74,-46.75,-37.08,-37.02,-46.86,-49.44
2022/09/23 00:27:59+0000,-35.76,-46.53,-36.36,-35.93,-46.99,-48.59
2022/09/23 00:28:51+0000,-35.65,-46.39,-37.16,-37.66,-46.78,-49.52
2022/09/23 00:29:43+0000,-35.38,-47.12,-36.92,-37.22,-47.27,-49.93
2022/09/23 00:30:35+0000,-35.95,-46.91,-37.14,-37.34,-47.23,-49.62
2022/09/23 00:31:34+0000,-35.44,-47.03,-37.23,-37.36,-47.21,-50.77
2022/09/23 00:32:26+0000,-36.18,-46.91,-37.38,-37.09,-48.15,-49.79
2022/09/23 00:33:18+0000,-35.11,-45.75,-37.38,-36.71,-47.17,-50.20
2022/09/23 00:34:10+0000,-36.20,-45.84,-36.56,-37.25,-48.10,-50.11
2022/09/23 00:35:02+0000,-35.22,-45.66,-36.76,-36.63,-47.23,-49.48
2022/09/23 00:35:54+0000,-35.71,-44.97,-37.19,-37.64,-47.78,-50.03
2022/09/23 00:36:46+0000,-36.16,-45.15,-37.10,-35.88,-47.57,-49.68
2022/09/23 00:37:38+0000,-35.10,-45.16,-37.08,-37.01,-47.11,-50.03
2022/09/23 00:38:31+0000,-35.30,-46.22,-36.31,-37.32,-47.10,-49.98
2022/09/23 00:39:23+0000,-35.63,-46.32,-36.53,-37.43,-47.18,-50.39
2022/09/23 00:40:15+0000,-35.38,-45.55,-36.33,-37.16,-48.80,-51.30
2022/09/23 00:41:14+0000,-35.56,-45.45,-36.42,-38.18,-47.24,-51.31
2022/09/23 00:42:06+0000,-35.55,-45.47,-36.13,-37.11,-48.60,-50.73
2022/09/23 00:42:58+0000,-37.10,-45.58,-36.44,-38.01,-48.85,-49.95
2022/09/23 00:43:50+0000,-35.21,-45.33,-36.91,-37.72,-47.68,-49.68
2022/09/23 00:44:42+0000,-36.45,-44.23,-36.02,-37.32,-47.33,-49.69
2022/09/23 00:45:34+0000,-35.71,-44.43,-36.01,-37.05,-47.40,-50.05
2022/09/23 00:46:26+0000,-35.23,-45.35,-36.27,-37.37,-47.44,-49.93
2022/09/23 00:47:18+0000,-35.63,-45.82,-36.73,-37.41,-47.67,-49.51
2022/09/23 00:48:10+0000,-35.61,-45.46,-36.29,-38.04,-47.68,-51.70
2022/09/23 00:49:02+0000,-35.95,-45.29,-36.72,-37.74,-48.34,-49.90
2022/09/23 00:49:55+0000,-36.69,-46.00,-36.29,-37.84,-48.67,-50.76
2022/09/23 00:50:47+0000,-35.17,-45.75,-36.68,-38.60,-48.42,-49.67
2022/09/23 00:51:51+0000,-34.45,-46.12,-36.77,-38.20,-49.00,-51.05
2022/09/23 00:52:43+0000,-35.40,-46.85,-36.63,-37.03,-48.84,-50.02
2022/09/23 00:53:35+0000,-35.60,-44.64,-35.82,-37.66,-47.63,-51.40
2022/09/23 00:54:27+0000,-36.09,-45.36,-36.68,-37.72,-49.37,-51.87
2022/09/23 00:55:19+0000,-35.94,-46.04,-36.59,-38.23,-48.65,-51.38
2022/09/23 00:56:11+0000,-35.59,-46.28,-36.27,-38.26,-49.28,-51.33
2022/09/23 00:57:03+0000,-35.39,-44.20,-35.86,-38.59,-48.10,-50.85
2022/09/23 00:57:55+0000,-34.96,-43.57,-37.02,-37.66,-48.64,-51.02
2022/09/23 00:58:47+0000,-36.61,-45.63,-36.90,-38.71,-48.68,-50.77
2022/09/23 00:59:40+0000,-36.09,-46.39,-35.77,-38.97,-48.96,-51.28
2022/09/23 01:00:32+0000,-35.45,-45.35,-35.94,-38.95,-48.55,-51.34
2022/09/23 01:01:31+0000,-35.40,-46.37,-35.81,-38.83,-48.87,-51.14
2022/09/23 01:02:23+0000,-35.77,-45.41,-36.47,-38.20,-49.15,-51.09
2022/09/23 01:03:15+0000,-35.07,-45.61,-36.00,-38.37,-49.03,-51.68
2022/09/23 01:04:07+0000,-35.22,-45.31,-36.63,-38.70,-48.32,-51.46
2022/09/23 01:04:59+0000,-34.78,-44.87,-37.26,-38.51,-47.40,-51.66
2022/09/23 01:05:52+0000,-35.56,-45.25,-35.97,-38.82,-48.49,-51.10
2022/09/23 01:06:44+0000,-35.76,-45.06,-36.14,-38.70,-48.23,-50.85
2022/09/23 01:07:36+0000,-36.48,-45.42,-37.04,-37.85,-48.70,-51.54
2022/09/23 01:08:28+0000,-35.27,-43.84,-36.91,-38.87,-48.49,-50.91
2022/09/23 01:09:20+0000,-36.55,-45.55,-35.61,-38.38,-48.13,-51.17
2022/09/23 01:10:12+0000,-35.85,-46.12,-36.66,-38.75,-48.20,-51.19
2022/09/23 01:11:12+0000,-36.30,-45.03,-36.38,-37.63,-48.99,-51.61
2022/09/23 01:12:04+0000,-36.57,-43.63,-36.13,-38.97,-48.80,-51.21
2022/09/23 01:12:56+0000,-35.25,-45.76,-36.15,-38.03,-48.92,-51.05
2022/09/23 01:13:48+0000,-35.37,-45.53,-36.28,-38.71,-48.31,-50.70
2022/09/23 01:14:40+0000,-35.07,-46.65,-36.64,-38.49,-48.55,-51.07
2022/09/23 01:15:32+0000,-34.92,-45.66,-37.07,-38.98,-47.51,-50.52
2022/09/23 01:16:24+0000,-34.99,-46.54,-35.54,-38.67,-47.88,-51.60
2022/09/23 01:17:16+0000,-35.48,-46.25,-35.87,-37.15,-48.16,-51.62
2022/09/23 01:18:08+0000,-35.71,-47.45,-36.31,-38.06,-48.16,-50.41
2022/09/23 01:19:01+0000,-36.05,-46.28,-36.32,-38.34,-48.02,-51.32
2022/09/23 01:19:53+0000,-35.76,-45.28,-35.97,-37.96,-48.60,-51.45
2022/09/23 01:20:45+0000,-36.25,-47.04,-36.29,-38.12,-48.03,-51.22
2022/09/23 01:21:44+0000,-36.22,-46.13,-36.07,-38.02,-48.13,-51.02
2022/09/23 01:22:36+0000,-35.52,-48.03,-36.49,-38.58,-48.54,-50.53
2022/09/23 01:23:28+0000,-35.00,-46.74,-36.70,-38.32,-47.96,-51.04
2022/09/23 01:24:20+0000,-35.41,-48.03,-35.58,-37.06,-48.34,-49.47
2022/09/23 01:25:12+0000,-35.39,-46.06,-36.51,-38.59,-48.40,-51.62
2022/09/23 01:26:04+0000,-34.84,-46.32,-36.31,-38.62,-48.10,-50.93
2022/09/23 01:26:57+0000,-35.52,-46.24,-36.63,-38.68,-49.84,-52.25
2022/09/23 01:27:49+0000,-34.60,-46.57,-36.00,-38.11,-49.66,-51.89
2022/09/23 01:28:41+0000,-35.43,-46.59,-36.41,-38.47,-50.25,-52.88
2022/09/23 01:29:33+0000,-35.40,-46.61,-36.94,-37.91,-50.20,-51.98
2022/09/23 01:30:25+0000,-35.22,-44.46,-36.20,-38.19,-50.31,-53.00
2022/09/23 01:31:26+0000,-35.24,-45.55,-36.03,-37.28,-50.16,-52.45
2022/09/23 01:32:18+0000,-35.50,-45.49,-35.90,-38.17,-50.50,-52.57
2022/09/23 01:33:10+0000,-36.16,-45.80,-36.27,-38.57,-50.36,-52.48
2022/09/23 01:34:02+0000,-35.01,-45.60,-36.22,-37.35,-50.39,-52.29
2022/09/23 01:34:54+0000,-34.88,-45.32,-35.90,-37.73,-50.17,-52.61
2022/09/23 01:35:47+0000,-34.57,-45.35,-35.73,-37.50,-50.30,-53.09
2022/09/23 01:36:39+0000,-36.01,-45.56,-35.73,-37.63,-50.11,-52.19
2022/09/23 01:37:31+0000,-35.10,-44.04,-36.49,-35.59,-49.79,-52.41
2022/09/23 01:38:23+0000,-34.77,-46.67,-35.76,-35.12,-49.63,-52.70
2022/09/23 01:39:15+0000,-34.40,-46.01,-35.75,-35.69,-49.65,-52.63
2022/09/23 01:40:07+0000,-35.12,-46.21,-35.27,-37.27,-49.79,-53.06
2022/09/23 01:41:07+0000,-35.24,-45.68,-36.04,-37.02,-49.06,-52.27
2022/09/23 01:41:59+0000,-34.13,-44.91,-36.60,-37.24,-49.43,-52.96
2022/09/23 01:42:51+0000,-34.77,-46.58,-35.67,-37.04,-48.78,-53.15
2022/09/23 01:43:43+0000,-35.89,-43.55,-36.63,-37.20,-49.24,-52.18
2022/09/23 01:44:35+0000,-35.05,-44.01,-35.01,-37.60,-49.76,-53.26
2022/09/23 01:45:27+0000,-36.18,-44.66,-35.69,-36.45,-49.96,-53.22
2022/09/23 01:46:19+0000,-35.96,-45.86,-36.28,-36.85,-50.35,-52.91
2022/09/23 01:47:11+0000,-35.78,-46.55,-35.82,-37.16,-49.77,-53.57
2022/09/23 01:48:03+0000,-35.06,-44.12,-35.75,-36.82,-50.14,-53.06
2022/09/23 01:48:55+0000,-35.92,-44.02,-35.84,-36.60,-49.63,-52.63
2022/09/23 01:49:48+0000,-35.05,-46.24,-35.26,-36.94,-49.77,-53.07
2022/09/23 01:50:40+0000,-35.30,-46.52,-36.34,-36.21,-50.24,-54.00
2022/09/23 01:51:39+0000,-35.41,-45.96,-35.95,-36.87,-50.13,-53.05
2022/09/23 01:52:31+0000,-35.76,-42.31,-35.35,-36.55,-49.09,-52.79
2022/09/23 01:53:23+0000,-34.90,-45.81,-35.25,-36.60,-50.12,-53.10
2022/09/23 01:54:16+0000,-35.33,-46.10,-35.71,-37.48,-50.22,-52.97
2022/09/23 01:55:08+0000,-34.62,-46.29,-35.61,-37.69,-49.16,-53.09
2022/09/23 01:56:00+0000,-34.89,-42.84,-36.97,-38.42,-48.76,-53.20
2022/09/23 01:56:52+0000,-35.12,-46.50,-35.18,-38.49,-49.45,-53.42
2022/09/23 01:57:44+0000,-34.03,-45.67,-35.82,-37.10,-49.77,-53.53
2022/09/23 01:58:36+0000,-35.51,-43.19,-36.21,-37.97,-46.71,-51.70
2022/09/23 01:59:28+0000,-35.30,-43.92,-36.16,-36.96,-47.72,-52.07
2022/09/23 02:00:20+0000,-35.65,-45.05,-35.76,-37.20,-48.20,-52.98
2022/09/23 02:01:20+0000,-34.54,-46.42,-34.85,-37.25,-48.56,-52.58
2022/09/23 02:02:12+0000,-35.34,-45.12,-35.76,-36.90,-48.15,-52.74
2022/09/23 02:03:04+0000,-35.57,-42.66,-35.86,-37.66,-48.46,-52.96
2022/09/23 02:03:56+0000,-34.50,-44.49,-35.83,-37.23,-48.03,-51.92
2022/09/23 02:04:48+0000,-34.90,-43.84,-35.30,-37.91,-48.24,-53.01
2022/09/23 02:05:40+0000,-34.94,-44.96,-36.02,-37.48,-48.80,-52.30
2022/09/23 02:06:32+0000,-35.83,-44.31,-36.31,-37.70,-48.63,-52.48
2022/09/23 02:07:24+0000,-35.17,-44.91,-35.08,-36.79,-48.50,-52.32
2022/09/23 02:08:16+0000,-35.36,-45.32,-35.74,-37.17,-48.10,-52.06
2022/09/23 02:09:08+0000,-34.58,-45.87,-36.29,-37.58,-48.75,-52.62
2022/09/23 02:10:00+0000,-35.81,-43.67,-36.06,-36.76,-47.75,-52.32
2022/09/23 02:11:00+0000,-35.04,-42.61,-35.70,-37.28,-48.56,-52.06
2022/09/23 02:11:52+0000,-35.77,-48.18,-35.60,-36.94,-48.47,-52.78
2022/09/23 02:12:44+0000,-34.87,-45.17,-35.67,-36.91,-49.40,-52.12
2022/09/23 02:13:36+0000,-34.63,-47.08,-35.68,-36.90,-47.87,-52.51
2022/09/23 02:14:28+0000,-34.75,-44.87,-35.96,-36.88,-48.61,-52.69
2022/09/23 02:15:20+0000,-35.28,-46.80,-35.76,-37.44,-48.76,-52.37
2022/09/23 02:16:12+0000,-33.27,-46.07,-35.67,-37.44,-48.99,-52.63
2022/09/23 02:17:04+0000,-33.93,-45.13,-36.50,-37.05,-48.69,-51.49
2022/09/23 02:17:56+0000,-34.45,-45.04,-36.08,-37.86,-48.12,-52.35
2022/09/23 02:18:48+0000,-35.17,-43.95,-35.80,-37.72,-48.14,-52.21
2022/09/23 02:19:40+0000,-34.36,-45.03,-35.33,-37.37,-48.23,-52.12
2022/09/23 02:20:32+0000,-34.73,-44.65,-36.30,-37.23,-48.46,-51.98
2022/09/23 02:21:32+0000,-35.37,-44.99,-36.42,-36.87,-48.31,-52.74
2022/09/23 02:22:24+0000,-34.43,-45.28,-35.28,-37.02,-48.68,-51.70
2022/09/23 02:23:16+0000,-35.38,-44.28,-35.43,-36.35,-48.03,-51.79
2022/09/23 02:24:08+0000,-35.02,-44.08,-36.67,-36.57,-47.77,-52.49
2022/09/23 02:25:00+0000,-35.10,-45.73,-36.32,-37.01,-48.31,-52.23
2022/09/23 02:25:52+0000,-35.27,-45.23,-36.03,-36.99,-48.46,-52.40
2022/09/23 02:26:44+0000,-34.40,-44.34,-36.44,-37.86,-48.18,-51.82
2022/09/23 02:27:36+0000,-35.22,-46.75,-35.52,-36.77,-48.40,-52.77
2022/09/23 02:28:29+0000,-34.68,-44.63,-36.25,-36.98,-48.30,-52.20
2022/09/23 02:29:21+0000,-35.01,-46.06,-35.36,-36.97,-47.55,-51.43
2022/09/23 02:30:13+0000,-35.47,-43.89,-36.52,-37.49,-48.43,-51.73
2022/09/23 02:31:13+0000,-34.80,-43.85,-36.44,-36.89,-47.83,-52.54
2022/09/23 02:32:05+0000,-33.94,-45.85,-35.71,-37.52,-48.00,-52.40
2022/09/23 02:32:57+0000,-34.63,-42.85,-35.56,-37.48,-47.76,-52.33
2022/09/23 02:33:49+0000,-34.44,-44.32,-36.22,-36.79,-47.58,-51.75
2022/09/23 02:34:41+0000,-34.31,-43.52,-35.65,-37.26,-48.43,-51.60
2022/09/23 02:35:33+0000,-35.45,-43.43,-35.76,-37.61,-48.03,-51.55
2022/09/23 02:36:25+0000,-35.13,-45.06,-35.80,-36.98,-47.97,-52.51
2022/09/23 02:37:17+0000,-34.25,-42.97,-35.40,-36.96,-47.98,-51.97
2022/09/23 02:38:09+0000,-34.30,-45.67,-36.37,-35.95,-46.15,-50.73
2022/09/23 02:39:01+0000,-34.56,-43.16,-36.64,-36.54,-46.62,-50.79
2022/09/23 02:39:53+0000,-33.97,-43.82,-35.58,-36.58,-44.30,-50.38
2022/09/23 02:40:45+0000,-34.16,-44.79,-36.04,-37.14,-47.00,-50.10
2022/09/23 02:41:45+0000,-34.64,-44.40,-35.59,-36.91,-44.65,-50.61
2022/09/23 02:42:37+0000,-34.42,-44.49,-36.40,-36.52,-47.11,-49.81
2022/09/23 02:43:29+0000,-34.26,-41.89,-36.99,-36.28,-46.43,-50.48
2022/09/23 02:44:21+0000,-34.15,-45.95,-36.78,-36.90,-46.51,-50.48
2022/09/23 02:45:13+0000,-33.31,-44.01,-36.81,-37.05,-46.41,-50.77
2022/09/23 02:46:05+0000,-33.93,-43.03,-36.26,-36.38,-46.92,-50.84
2022/09/23 02:46:57+0000,-34.35,-42.31,-35.46,-37.00,-47.47,-50.23
2022/09/23 02:47:49+0000,-33.95,-45.21,-36.54,-36.59,-46.82,-50.00
2022/09/23 02:48:41+0000,-33.92,-44.00,-36.66,-36.43,-46.96,-50.37
2022/09/23 02:49:33+0000,-34.20,-42.61,-36.90,-35.24,-46.77,-50.68
2022/09/23 02:50:26+0000,-34.21,-43.77,-36.49,-36.88,-46.79,-49.98
2022/09/23 02:51:25+0000,-33.36,-44.68,-36.05,-36.18,-47.66,-50.38
2022/09/23 02:52:17+0000,-33.95,-43.89,-35.18,-36.12,-47.06,-50.38
2022/09/23 02:53:09+0000,-34.29,-44.68,-36.83,-36.84,-47.05,-50.39
2022/09/23 02:54:01+0000,-34.09,-42.35,-37.64,-36.83,-46.80,-50.19
2022/09/23 02:54:53+0000,-33.27,-46.28,-35.69,-35.60,-46.87,-50.78
2022/09/23 02:55:45+0000,-33.55,-45.25,-36.48,-37.47,-47.29,-50.39
2022/09/23 02:56:37+0000,-34.63,-44.83,-37.30,-36.43,-47.35,-50.93
2022/09/23 02:57:29+0000,-34.70,-40.17,-37.27,-35.69,-46.83,-51.18
2022/09/23 02:58:21+0000,-33.66,-43.99,-36.14,-36.10,-47.18,-50.32
2022/09/23 02:59:13+0000,-34.50,-45.80,-36.84,-36.03,-47.18,-50.91
2022/09/23 03:00:06+0000,-33.96,-40.63,-36.89,-36.47,-47.46,-50.94
2022/09/23 03:01:06+0000,-34.16,-46.12,-36.86,-37.15,-44.92,-50.36
2022/09/23 03:01:58+0000,-35.25,-43.70,-36.75,-36.09,-46.97,-50.27
2022/09/23 03:02:50+0000,-33.46,-46.44,-35.98,-36.28,-46.36,-51.32
2022/09/23 03:03:42+0000,-34.47,-40.36,-36.79,-36.04,-46.74,-50.69
2022/09/23 03:04:34+0000,-34.67,-41.84,-36.33,-36.37,-47.32,-50.70
2022/09/23 03:05:26+0000,-33.38,-44.15,-37.11,-35.79,-47.09,-50.77
2022/09/23 03:06:18+0000,-35.28,-44.10,-36.14,-38.45,-46.95,-51.10
2022/09/23 03:07:10+0000,-34.46,-43.02,-36.59,-36.63,-47.11,-50.07
2022/09/23 03:08:02+0000,-33.43,-43.79,-35.91,-36.17,-46.78,-50.88
2022/09/23 03:08:54+0000,-34.04,-45.43,-35.86,-36.17,-47.53,-50.21
2022/09/23 03:09:46+0000,-34.09,-45.59,-35.82,-36.57,-47.81,-50.38
2022/09/23 03:10:38+0000,-34.65,-42.08,-36.22,-36.70,-47.02,-50.56
2022/09/23 03:11:38+0000,-34.04,-45.70,-36.15,-36.61,-47.41,-49.98
2022/09/23 03:12:30+0000,-33.83,-45.54,-36.52,-36.30,-46.80,-51.12
2022/09/23 03:13:22+0000,-35.01,-46.68,-35.67,-36.03,-46.78,-50.77
2022/09/23 03:14:14+0000,-34.20,-44.87,-35.37,-36.40,-46.74,-50.22
2022/09/23 03:15:06+0000,-34.23,-46.02,-36.37,-35.95,-46.98,-50.44
2022/09/23 03:15:58+0000,-34.17,-41.30,-36.50,-36.47,-47.07,-49.66
2022/09/23 03:16:50+0000,-34.67,-46.65,-34.57,-36.63,-47.15,-50.90
2022/09/23 03:17:42+0000,-33.48,-45.44,-36.47,-36.30,-46.67,-50.88
2022/09/23 03:18:34+0000,-33.27,-44.59,-36.22,-35.86,-48.00,-50.57
2022/09/23 03:19:26+0000,-34.37,-44.39,-36.08,-35.87,-47.79,-50.19
2022/09/23 03:20:18+0000,-33.89,-44.15,-36.08,-35.95,-47.44,-51.16
2022/09/23 03:21:17+0000,-34.57,-44.67,-35.31,-36.05,-47.82,-50.78
2022/09/23 03:22:09+0000,-34.66,-43.51,-36.52,-37.06,-47.29,-50.53
2022/09/23 03:23:01+0000,-34.40,-44.28,-36.53,-36.93,-46.91,-50.69
2022/09/23 03:23:53+0000,-33.71,-43.93,-36.25,-36.24,-47.20,-50.42
2022/09/23 03:24:45+0000,-33.47,-44.98,-36.13,-36.68,-47.40,-50.35
2022/09/23 03:25:38+0000,-34.66,-44.35,-36.42,-36.01,-47.15,-49.86
2022/09/23 03:26:30+0000,-33.94,-45.02,-36.28,-36.24,-47.26,-51.03
2022/09/23 03:27:22+0000,-34.07,-45.88,-35.14,-36.55,-46.68,-50.27
2022/09/23 03:28:14+0000,-33.70,-44.36,-36.33,-36.24,-46.62,-49.96
2022/09/23 03:29:06+0000,-33.88,-46.06,-36.51,-36.48,-46.98,-51.00
2022/09/23 03:29:58+0000,-34.20,-44.50,-36.72,-36.74,-47.91,-50.88
2022/09/23 03:30:50+0000,-34.66,-44.62,-35.26,-36.64,-47.00,-50.14
2022/09/23 03:31:49+0000,-34.86,-43.73,-35.01,-36.56,-47.57,-50.77
2022/09/23 03:32:41+0000,-34.24,-45.41,-36.25,-36.21,-47.11,-50.48
2022/09/23 03:33:33+0000,-34.37,-44.53,-36.43,-36.16,-46.87,-51.15
2022/09/23 03:34:25+0000,-34.57,-44.81,-35.16,-36.31,-47.04,-50.61
2022/09/23 03:35:17+0000,-34.64,-42.69,-34.86,-36.45,-47.03,-50.32
2022/09/23 03:36:09+0000,-30.40,-43.16,-36.09,-35.96,-46.94,-50.69
2022/09/23 03:37:01+0000,-34.59,-43.36,-36.06,-36.65,-46.75,-50.70
2022/09/23 03:37:53+0000,-34.20,-45.02,-36.34,-36.68,-47.07,-50.64
2022/09/23 03:38:45+0000,-34.10,-43.61,-36.27,-36.07,-46.59,-50.41
2022/09/23 03:39:37+0000,-33.73,-46.17,-35.58,-36.40,-46.32,-50.19
2022/09/23 03:40:30+0000,-35.24,-42.35,-35.14,-36.56,-46.74,-50.81
2022/09/23 03:41:28+0000,-35.20,-44.92,-36.63,-36.31,-47.09,-50.73
2022/09/23 03:42:21+0000,-35.02,-43.40,-35.71,-36.81,-46.88,-49.92
2022/09/23 03:43:13+0000,-36.11,-42.45,-36.88,-37.09,-47.04,-50.61
2022/09/23 03:44:05+0000,-35.04,-44.24,-35.58,-36.53,-47.27,-50.09
2022/09/23 03:44:57+0000,-36.04,-44.59,-35.41,-36.96,-46.11,-50.97
2022/09/23 03:45:49+0000,-34.68,-43.04,-35.97,-36.49,-46.67,-51.47
2022/09/23 03:46:41+0000,-35.36,-43.10,-36.34,-36.07,-47.11,-50.56
2022/09/23 03:47:33+0000,-35.07,-43.65,-36.08,-37.13,-48.82,-52.16
2022/09/23 03:48:25+0000,-35.21,-44.83,-35.74,-36.04,-48.33,-52.40
2022/09/23 03:49:17+0000,-35.22,-42.35,-35.87,-37.71,-46.57,-51.96
2022/09/23 03:50:09+0000,-34.76,-43.81,-35.95,-36.83,-47.99,-51.24
2022/09/23 03:51:08+0000,-32.92,-44.80,-36.40,-36.25,-47.37,-50.80
2022/09/23 03:52:00+0000,-34.77,-44.81,-35.80,-36.08,-47.43,-51.79
2022/09/23 03:52:52+0000,-35.42,-47.44,-36.12,-37.66,-48.89,-52.39
2022/09/23 03:53:44+0000,-31.75,-40.81,-36.30,-37.65,-48.33,-51.77
2022/09/23 03:54:36+0000,-33.31,-43.73,-35.05,-37.64,-48.42,-51.90
2022/09/23 03:55:28+0000,-34.75,-42.61,-36.38,-37.25,-48.38,-51.69
2022/09/23 03:56:20+0000,-34.61,-42.32,-35.94,-37.33,-47.73,-52.45
2022/09/23 03:57:12+0000,-35.84,-40.14,-35.78,-36.42,-48.02,-51.78
2022/09/23 03:58:04+0000,-34.39,-43.65,-36.16,-36.92,-48.62,-52.12
2022/09/23 03:58:56+0000,-34.38,-45.13,-36.17,-37.13,-48.45,-51.46
2022/09/23 03:59:48+0000,-34.44,-42.75,-35.83,-36.82,-48.51,-52.25
2022/09/23 04:00:40+0000,-35.57,-41.60,-35.69,-37.05,-48.39,-52.12
2022/09/23 04:01:40+0000,-34.54,-41.39,-35.48,-37.37,-47.65,-51.95
2022/09/23 04:02:32+0000,-35.75,-45.02,-35.84,-36.57,-47.26,-51.87
2022/09/23 04:03:24+0000,-35.56,-44.50,-35.92,-36.62,-47.70,-52.32
2022/09/23 04:04:16+0000,-35.01,-41.56,-35.69,-37.05,-47.74,-52.23
2022/09/23 04:05:08+0000,-35.84,-40.91,-36.36,-36.75,-48.54,-51.91
2022/09/23 04:06:00+0000,-34.63,-44.30,-35.70,-37.19,-49.06,-52.16
2022/09/23 04:06:52+0000,-36.37,-43.41,-35.13,-37.05,-41.94,-51.20
2022/09/23 04:07:45+0000,-34.72,-41.74,-36.26,-37.20,-48.71,-51.92
2022/09/23 04:08:37+0000,-33.94,-45.40,-35.57,-37.08,-46.45,-51.83
2022/09/23 04:09:29+0000,-35.49,-43.00,-35.28,-36.53,-47.64,-52.69
2022/09/23 04:10:21+0000,-34.61,-45.56,-35.91,-36.61,-47.10,-51.93
2022/09/23 04:11:20+0000,-35.38,-46.79,-35.17,-36.85,-48.88,-51.86
2022/09/23 04:12:12+0000,-34.82,-39.06,-35.89,-36.57,-48.58,-51.85
2022/09/23 04:13:04+0000,-34.76,-45.02,-35.74,-37.23,-48.69,-51.88
2022/09/23 04:13:56+0000,-35.11,-45.57,-36.09,-35.79,-48.28,-50.59
2022/09/23 04:14:48+0000,-34.30,-40.73,-35.76,-36.17,-47.88,-50.01
2022/09/23 04:15:40+0000,-36.04,-41.06,-35.91,-37.19,-48.16,-50.84
2022/09/23 04:16:32+0000,-36.49,-44.85,-36.25,-38.24,-48.23,-51.16
2022/09/23 04:17:24+0000,-35.23,-43.40,-35.66,-36.70,-49.28,-50.22
2022/09/23 04:18:16+0000,-33.58,-39.89,-35.76,-37.02,-48.97,-51.21
2022/09/23 04:19:08+0000,-36.54,-41.22,-35.42,-35.02,-47.52,-49.77
2022/09/23 04:20:01+0000,-37.17,-44.30,-36.20,-36.24,-46.73,-49.82
2022/09/23 04:20:59+0000,-36.84,-45.72,-36.63,-35.57,-47.54,-49.63
2022/09/23 04:21:51+0000,-34.49,-46.69,-35.27,-36.14,-45.97,-49.03
2022/09/23 04:22:43+0000,-36.29,-42.47,-36.42,-36.00,-47.27,-49.45
2022/09/23 04:23:35+0000,-35.79,-46.80,-36.56,-35.27,-46.68,-49.88
2022/09/23 04:24:28+0000,-36.31,-45.75,-36.63,-36.03,-48.37,-49.91
2022/09/23 04:25:20+0000,-35.99,-42.53,-35.98,-37.05,-48.69,-50.43
2022/09/23 04:26:12+0000,-35.39,-41.35,-36.27,-35.54,-48.52,-50.43
2022/09/23 04:27:04+0000,-35.30,-45.96,-36.54,-35.87,-48.27,-50.58
2022/09/23 04:27:56+0000,-35.82,-44.30,-36.28,-36.00,-48.73,-50.98
2022/09/23 04:28:48+0000,-36.36,-41.90,-36.27,-36.47,-48.67,-49.89
2022/09/23 04:29:40+0000,-35.91,-41.18,-36.27,-36.28,-48.65,-50.62
2022/09/23 04:30:32+0000,-36.10,-45.16,-36.20,-36.18,-48.83,-50.92
2022/09/23 04:31:31+0000,-36.36,-45.03,-36.58,-36.02,-48.58,-49.59
2022/09/23 04:32:24+0000,-36.16,-45.52,-36.27,-36.18,-48.06,-50.29
2022/09/23 04:33:16+0000,-36.15,-43.05,-35.31,-35.79,-48.84,-49.87
2022/09/23 04:34:08+0000,-36.52,-44.92,-36.51,-35.48,-48.18,-50.60
2022/09/23 04:35:00+0000,-36.42,-44.72,-36.60,-36.27,-49.34,-49.98
2022/09/23 04:35:52+0000,-36.15,-46.84,-35.68,-35.81,-49.09,-49.62
2022/09/23 04:36:44+0000,-36.39,-41.96,-36.82,-36.23,-48.79,-50.30
2022/09/23 04:37:36+0000,-35.95,-45.54,-36.57,-36.23,-48.98,-51.25
2022/09/23 04:38:28+0000,-36.24,-45.33,-36.08,-35.86,-48.90,-50.70
2022/09/23 04:39:20+0000,-36.49,-42.57,-35.44,-35.82,-48.65,-50.30
2022/09/23 04:40:12+0000,-36.45,-44.07,-36.37,-34.26,-48.64,-50.20
2022/09/23 04:41:11+0000,-36.19,-41.78,-36.29,-36.29,-48.51,-50.26
2022/09/23 04:42:03+0000,-35.94,-44.97,-36.00,-35.64,-49.16,-51.37
2022/09/23 04:42:55+0000,-36.30,-45.28,-35.31,-37.53,-50.01,-51.90
2022/09/23 04:43:48+0000,-35.68,-43.64,-35.07,-37.10,-49.72,-52.35
2022/09/23 04:44:40+0000,-36.20,-45.19,-35.73,-36.69,-50.55,-51.73
2022/09/23 04:45:32+0000,-37.11,-45.35,-36.31,-37.40,-50.07,-49.59
2022/09/23 04:46:24+0000,-36.71,-43.64,-35.33,-37.27,-47.49,-52.12
2022/09/23 04:47:16+0000,-36.65,-44.61,-35.85,-37.37,-50.26,-51.91